EW5523 Weather Reports


time (UTC)temp
F
wind
direction
speed
knots
gust
knots
rain 1hr
in
rain 24hr
in
rain mn
in
humidity
%
barometer
mb
20201025134634 36 314 0.0 1.7 0.00 0.15 0.06 84 1007.2
20201025133151 36 315 0.0 1.7 0.00 0.15 0.06 84 1007.2
20201025131731 37 315 0.0 1.7 0.00 0.15 0.06 84 1007.3
20201025130328 37 315 0.0 1.7 0.00 0.18 0.06 84 1007.2
20201025124747 37 314 0.9 3.5 0.00 0.18 0.06 82 1007.2
20201025123135 37 320 0.0 1.7 0.00 0.18 0.06 83 1007.2
20201025121749 37 320 0.0 2.6 0.00 0.18 0.06 84 1007.4
20201025120250 37 330 0.0 1.7 0.00 0.21 0.06 84 1007.4
20201025114732 37 328 0.0 2.6 0.00 0.21 0.06 84 1007.5
20201025113121 38 326 0.0 0.9 0.00 0.21 0.06 83 1007.4
20201025111637 38 323 0.9 1.7 0.00 0.21 0.06 83 1007.4
20201025110139 38 328 0.0 3.5 0.00 0.24 0.06 82 1007.4
20201025104707 38 318 2.6 5.2 0.00 0.24 0.06 81 1007.3
20201025103301 37 299 0.9 3.5 0.00 0.24 0.06 84 1007.3
20201025101644 37 288 0.9 4.3 0.00 0.24 0.06 85 1007.3
20201025100137 37 289 1.7 4.3 0.00 0.30 0.06 85 1007.4
20201025094615 37 293 0.9 3.5 0.00 0.30 0.06 86 1007.4
20201025093212 37 292 0.9 3.5 0.00 0.30 0.06 87 1007.3
20201025091647 37 313 0.0 1.7 0.00 0.30 0.06 87 1007.3
20201025090123 37 305 0.0 2.6 0.00 0.37 0.06 87 1007.3
20201025084626 37 294 0.9 2.6 0.00 0.37 0.06 89 1007.3
20201025083237 37 236 0.9 2.6 0.00 0.37 0.06 87 1007.3
20201025081638 37 313 0.0 4.3 0.00 0.37 0.06 87 1007.4
20201025080218 37 268 0.0 3.5 0.00 0.46 0.06 89 1007.5
20201025074643 37 312 0.0 3.5 0.00 0.46 0.06 91 1007.3
20201025073147 36 346 0.9 4.3 0.00 0.46 0.06 92 1007.4
20201025071619 36 265 1.7 4.3 0.00 0.46 0.06 92 1007.4
20201025070111 36 332 0.0 2.6 0.00 0.53 0.06 93 1007.2
20201025064625 36 308 1.7 4.3 0.00 0.53 0.06 93 1007.2
20201025063104 35 354 0.9 4.3 0.00 0.53 0.06 93 1007.2
20201025061549 36 337 0.0 3.5 0.00 0.53 0.06 94 1007.4
20201025060141 36 325 0.0 3.5 0.00 0.59 0.06 94 1007.3
20201025054653 36 333 0.9 3.5 0.00 0.59 0.06 95 1007.5
20201025053125 36 299 0.0 2.6 0.00 0.59 0.06 95 1007.6
20201025051557 35 310 1.7 3.5 0.00 0.59 0.06 95 1007.7
20201025050101 35 282 0.0 4.3 0.00 0.61 0.06 95 1007.7
20201025044611 35 296 2.6 5.2 0.00 0.61 0.06 95 1007.6
20201025043121 36 303 0.9 3.5 0.00 0.61 0.06 95 1007.2
20201025041551 36 312 0.9 2.6 0.00 0.61 0.06 95 1007.1
20201025040258 36 303 0.9 4.3 0.00 0.61 0.06 94 1007.0
20201025034604 36 301 1.7 4.3 0.00 0.61 0.06 95 1006.8
20201025033101 36 299 0.9 5.2 0.00 0.61 0.06 94 1006.6
20201025031546 37 308 2.6 5.2 0.00 0.61 0.06 95 1006.6
20201025030034 37 300 1.7 7.8 0.00 0.61 0.06 95 1006.4
20201025024531 37 303 2.6 7.0 0.00 0.61 0.06 95 1006.2
20201025023042 37 315 1.7 4.3 0.00 0.61 0.06 95 1006.2
20201025021626 37 305 0.9 5.2 0.00 0.61 0.06 95 1006.1
20201025020037 37 272 0.9 3.5 0.00 0.61 0.06 95 1006.0
20201025014534 37 280 0.9 5.2 0.00 0.61 0.06 95 1005.8
20201025013038 38 281 1.7 4.3 0.01 0.61 0.06 96 1005.8
20201025011515 38 274 0.0 3.5 0.01 0.61 0.06 95 1005.7
20201025010029 39 241 0.0 2.6 0.01 0.61 0.06 95 1005.5
20201025004811 39 274 0.0 1.7 0.01 0.61 0.06 95 1005.5
20201025003311 39 274 0.0 1.7 0.00 0.60 0.05 95 1005.1
20201025001654 39 274 0.0 0.9 0.00 0.60 0.05 95 1005.2
20201025000215 40 274 0.0 2.6 0.00 0.60 0.05 95 1005.0
20201024234610 40 273 0.0 2.6 0.01 0.60 0.05 96 1005.1
20201024233132 40 277 1.7 4.3 0.01 0.60 0.05 96 1005.2
20201024231650 41 283 0.9 6.1 0.02 0.60 0.05 96 1005.0
20201024230209 41 310 1.7 7.8 0.02 0.60 0.05 96 1004.9
20201024224604 41 276 1.7 6.1 0.01 0.59 0.04 96 1004.8
20201024223111 42 275 1.7 6.1 0.02 0.59 0.04 96 1004.8
20201024221558 42 283 2.6 7.0 0.01 0.57 0.03 97 1004.7
20201024220257 42 314 1.7 5.2 0.01 0.57 0.03 97 1004.5
20201024214605 42 291 3.5 8.7 0.02 0.57 0.03 97 1004.2
20201024213036 43 293 1.7 4.3 0.01 0.56 0.02 97 1004.1
20201024211621 44 253 0.0 2.6 0.01 0.56 0.02 97 1003.7
20201024210109 44 283 0.0 5.2 0.02 0.56 0.02 97 1003.7
20201024204559 44 226 0.0 3.5 0.01 0.56 0.01 97 1003.6
20201024203033 44 241 0.9 6.1 0.01 0.56 0.01 97 1003.6
20201024201618 44 270 0.0 2.6 0.01 0.56 0.01 97 1003.6
20201024200032 44 267 0.0 5.2 0.01 0.55 0.55 97 1003.6
20201024194542 44 331 0.9 4.3 0.01 0.55 0.55 97 1003.4
20201024193035 44 247 0.0 7.0 0.01 0.55 0.55 97 1003.4
20201024191528 44 269 0.0 4.3 0.01 0.55 0.55 97 1003.3
20201024190044 45 259 0.9 4.3 0.00 0.54 0.54 97 1003.1
20201024184610 45 275 0.9 5.2 0.00 0.54 0.54 97 1003.0
20201024183034 45 262 0.0 5.2 0.01 0.54 0.54 97 1002.9
20201024181544 45 271 1.7 5.2 0.01 0.54 0.54 97 1002.8
20201024180025 44 238 1.7 6.1 0.02 0.54 0.54 97 1002.6
20201024174526 44 256 1.7 5.2 0.02 0.54 0.54 97 1002.5
20201024173040 44 208 0.0 4.3 0.01 0.53 0.53 97 1002.5
20201024171531 44 223 0.0 3.5 0.01 0.53 0.53 97 1002.3
20201024170032 44 253 0.0 2.6 0.00 0.52 0.52 97 1002.3
20201024164527 44 256 0.0 0.9 0.01 0.52 0.52 97 1002.2
20201024163035 44 256 0.0 2.6 0.01 0.52 0.52 97 1002.1
20201024161559 44 254 0.0 4.3 0.02 0.52 0.52 97 1002.0
20201024160023 44 269 0.0 4.3 0.03 0.52 0.52 97 1002.0
20201024154518 44 222 0.0 6.1 0.02 0.51 0.51 97 1001.8
20201024153027 44 289 0.0 2.6 0.02 0.51 0.51 97 1001.7
20201024151525 43 254 0.0 1.7 0.02 0.50 0.50 97 1001.6
20201024150024 44 254 0.0 0.0 0.01 0.49 0.49 97 1001.6
20201024144547 43 254 0.0 0.0 0.02 0.49 0.49 97 1001.5
20201024143109 44 254 0.0 0.0 0.01 0.48 0.48 97 1001.5
20201024141547 44 254 0.0 0.9 0.02 0.48 0.48 97 1001.2
20201024140025 43 253 0.0 2.6 0.02 0.48 0.48 97 1001.1